Location: Praha
(50.0830°N, 14.4670°E)
Time: 06:58:15
(UTC+01:00)

ISS - Pass Details

Date: 09 December 2019
Orbit: 411 x 421 km, 51.6° (Epoch: 15 December)

Event Time Altitude Azimuth Distance (km) Brightness Sun altitude
Rises 17:36:08 0° 287° (WNW) 2,359 1.0 -14.5°
Reaches altitude 10° 17:38:22 10° 276° (W) 1,495 0.1 -14.8°
Maximum altitude 17:41:21 30° 213° (SSW) 772 -1.9 -15.3°
Drops below altitude 10° 17:44:21 10° 150° (SSE) 1,493 -1.1 -15.8°
Enters shadow 17:45:10 - 145° (SE) 1,805 -0.7 -15.9°
